CZ-6A DEB, 61273

Orbit data source: Space-Track

CZ-6A DEB, 61273 is space debris in LEO originally from a launch on Tue, 06 Aug 2024 UTC launched from the Taiyaun Space Center, China (TSC). Debris objects in space refer to the collection of defunct objects orbiting the Earth. Examples of debris include non-operational satellites, rocket bodies, and fragments generated from explosions, collisions, or faulty payload assembly.

Loading next visibility...
Identifier
61273, 2024-140SJ
Orbit
LEO
Country
Flag of CNCN / PRC
Related business
Manufacturer
SAST
Mission
Spacecraft
Bus & Motor
Unknown
Mass
Unknown
Launch date (UTC)
2024-08-06 (2 years ago)
Launch vehicle
Unknown
Launch site
Taiyaun Space Center, China (TSC)
Object type
Payload
Rocket body
Debris
Shape & HBR
Unknown shape, 0.1 m
Radar Cross Section
Medium (>0.1 m² and <1 m²)

Expand to show TLE details & history
Last TLE update: 15 hours ago

TLE from 15 hours ago
0 CZ-6A DEB
1 61273U 24140SJ  26171.21706465  .00001935  00000-0  10015-2 0  9995
2 61273  88.8464 263.7562 0096799 216.8251 142.6262 14.12185891 93471
Epoch: 2026-06-20T05:12Z
TLE epoch observation values (Epoch: 2026-06-20T05:12:34.385Z)
Latitude
0.00003°
Longitude
-82.82193°
Altitude
910.818 km
Speed
7.368 km/s
True Right ascension
17h 35m 01s
True Declination
0° 00' 00"
Sunlit
Object was in full shadow at epoch
Visualization orbit readout
Latitude
Unknown
Longitude
Unknown
Altitude
Unknown
Speed
Unknown
Apparent Right ascension
Unknown
Apparent Declination
Unknown
Sunlit
N/A
Visualization observer readout
Local Sidereal Time
07:22:53
Azimuth
Unknown
Elevation
Unknown
Doppler factor
Unknown
Orbital elements
Apogee altitude
918.821 km
Perigee altitude
778.908 km
Semi-major axis
7,227.001 km
Eccentricity
0.00968
Inclination
88.8464°
RAAN
263.7562°
Arg. of periapsis
216.8251°
True anomaly
143.29309°
Mean anomaly
142.6262°
Eccentric anomaly
142.96028°
Mean motion
3.53269 °/min
Orbital period
101.91 mins
BSTAR
0.0010015
Loading maneuver chart data...
Computing Atmospheric mass density...
Loading historical data...
Loading historical data...
Loading historical data...
Loading historical data...
Loading historical data...
Loading historical data...
Loading historical data...

Documentation

Showing up to 5 results
|